Little Falls, MN

7:42 AM CDT on October 22, 2017 (GMT -0500)
Little Falls-Morrison County

Weather History for KLXL - March, 2014

Change the Weather History Date:

Saturday, March 1, 2014

  Actual Average Record
Temperature  
Mean Temperature -8 °F -  
Max Temperature -2 °F 35 °F 60 °F (1992)
Min Temperature -14 °F 12 °F -39 °F (1962)
Degree Days  
Heating Degree Days 73    
Moisture  
Dew Point -22 °F    
Average Humidity 50    
Maximum Humidity 71    
Minimum Humidity 35    
Precipitation  
Precipitation 0.00 in - - ()
Sea Level Pressure  
Sea Level Pressure 30.41 in    
Wind  
Wind Speed 7 mph (WNW)    
Max Wind Speed 15 mph    
Max Gust Speed 18 mph    
Visibility 10 miles    
Events      
Averages and records for this station are not official NWS values.
T = Trace of Precipitation, MM = Missing Value Source: NWS Daily Summary

Daily Weather History Graph

Daily Weather History Graph

Search for Another Location

Airport or City:

Trip Planner

Search our weather history database for the weather conditions in past years. The results will help you decide how hot, cold, wet, or windy it might be!

Date:

Astronomy

Mar. 01, 2014 Rise Set
Actual Time 6:56 AM CST 6:04 PM CST
Civil Twilight 6:26 AM CST 6:33 PM CST
Nautical Twilight 5:51 AM CST 7:08 PM CST
Astronomical Twilight 5:17 AM CST 7:43 PM CST
Moon 6:47 AM CST (3/1) 6:57 PM CST (3/1)
Length of Visible Light 12h 07m
Length of Day
11h 07m
New Moon, 0% of the Moon is Illuminated
Mar 1
New Moon
Mar 8
First Quarter
Mar 16
Full
Mar 23
Last Quarter
Mar 30
New

Hourly Weather History & Observations

Time (CST) Temp. Windchill Dew Point Humidity Pressure Visibility Wind Dir Wind Speed Gust Speed Precip Events Conditions
12:17 AM -4.0 °F -19.0 °F -13.0 °F 65% 30.21 in 10.0 mi NW 8.1 mph - N/A   Clear
12:37 AM -4.0 °F -16.3 °F -13.0 °F 65% 30.22 in 10.0 mi NW 5.8 mph - N/A   Clear
12:57 AM -4.0 °F -17.8 °F -13.0 °F 65% 30.23 in 10.0 mi NW 6.9 mph - N/A   Clear
1:18 AM -5.8 °F -18.4 °F -13.0 °F 71% 30.24 in 10.0 mi NW 5.8 mph - N/A   Clear
1:37 AM -5.8 °F -19.9 °F -13.0 °F 71% 30.25 in 10.0 mi NW 6.9 mph - N/A   Clear
1:57 AM -5.8 °F -19.9 °F -14.8 °F 65% 30.26 in 10.0 mi NW 6.9 mph - N/A   Clear
2:18 AM -5.8 °F -19.9 °F -14.8 °F 65% 30.27 in 10.0 mi NW 6.9 mph - N/A   Clear
2:37 AM -5.8 °F -19.9 °F -14.8 °F 65% 30.27 in 10.0 mi NW 6.9 mph - N/A   Clear
2:57 AM -7.6 °F -18.8 °F -14.8 °F 71% 30.27 in 10.0 mi NW 4.6 mph - N/A   Clear
3:18 AM -7.6 °F -16.5 °F -16.6 °F 65% 30.28 in 10.0 mi NW 3.5 mph - N/A   Clear
3:37 AM -7.6 °F - -16.6 °F 65% 30.27 in 10.0 mi Calm Calm - N/A   Clear
3:57 AM -7.6 °F -18.8 °F -16.6 °F 65% 30.28 in 10.0 mi WNW 4.6 mph - N/A   Clear
4:18 AM -9.4 °F -22.7 °F -16.6 °F 71% 30.30 in 10.0 mi WNW 5.8 mph - N/A   Clear
4:37 AM -9.4 °F -22.7 °F -18.4 °F 65% 30.30 in 10.0 mi WNW 5.8 mph - N/A   Clear
4:57 AM -9.4 °F -20.9 °F -18.4 °F 65% 30.32 in 10.0 mi WNW 4.6 mph - N/A   Clear
5:18 AM -9.4 °F -25.6 °F -18.4 °F 65% 30.32 in 10.0 mi WNW 8.1 mph - N/A   Clear
5:37 AM -9.4 °F -20.9 °F -20.2 °F 59% 30.33 in 10.0 mi NW 4.6 mph - N/A   Clear
5:58 AM -9.4 °F -18.6 °F -22.0 °F 54% 30.33 in 10.0 mi NW 3.5 mph - N/A   Clear
6:17 AM -9.4 °F -22.7 °F -22.0 °F 54% 30.34 in 10.0 mi NW 5.8 mph - N/A   Clear
6:37 AM -9.4 °F -22.7 °F -23.8 °F 49% 30.34 in 10.0 mi NW 5.8 mph - N/A   Clear
6:58 AM -9.4 °F -24.3 °F -23.8 °F 49% 30.36 in 10.0 mi NW 6.9 mph - N/A   Clear
7:17 AM -9.4 °F -24.3 °F -23.8 °F 49% 30.37 in 10.0 mi NW 6.9 mph - N/A   Clear
7:37 AM -9.4 °F -25.6 °F -23.8 °F 49% 30.38 in 10.0 mi NW 8.1 mph - N/A   Clear
7:58 AM -9.4 °F -24.3 °F -23.8 °F 49% 30.39 in 10.0 mi NW 6.9 mph - N/A   Clear
8:17 AM -7.6 °F -22.1 °F -23.8 °F 45% 30.40 in 10.0 mi NW 6.9 mph - N/A   Clear
8:38 AM -7.6 °F -20.6 °F -23.8 °F 45% 30.41 in 10.0 mi WNW 5.8 mph - N/A   Clear
8:57 AM -7.6 °F -18.8 °F -23.8 °F 45% 30.40 in 10.0 mi NW 4.6 mph - N/A   Clear
9:17 AM -7.6 °F -24.6 °F -23.8 °F 45% 30.41 in 10.0 mi WNW 9.2 mph - N/A   Clear
9:38 AM -7.6 °F -23.4 °F -22.0 °F 50% 30.41 in 10.0 mi NW 8.1 mph - N/A   Clear
9:57 AM -7.6 °F -24.6 °F -22.0 °F 50% 30.43 in 10.0 mi NW 9.2 mph - N/A   Clear
10:17 AM -5.8 °F -21.2 °F -22.0 °F 46% 30.42 in 10.0 mi NNW 8.1 mph - N/A   Clear
10:38 AM -5.8 °F -22.4 °F -22.0 °F 46% 30.44 in 10.0 mi NW 9.2 mph - N/A   Clear
10:57 AM -5.8 °F -18.4 °F -22.0 °F 46% 30.45 in 10.0 mi NW 5.8 mph - N/A   Clear
11:17 AM -5.8 °F -23.4 °F -23.8 °F 42% 30.44 in 10.0 mi WNW 10.4 mph - N/A   Clear
11:37 AM -5.8 °F -21.2 °F -23.8 °F 42% 30.46 in 10.0 mi WNW 8.1 mph 17.3 mph N/A   Clear
11:57 AM -4.0 °F -20.2 °F -22.0 °F 42% 30.45 in 10.0 mi WNW 9.2 mph - N/A   Clear
12:17 PM -4.0 °F -21.2 °F -23.8 °F 38% 30.45 in 10.0 mi WNW 10.4 mph - N/A   Clear
12:38 PM -4.0 °F -21.2 °F -23.8 °F 38% 30.45 in 10.0 mi WNW 10.4 mph 17.3 mph N/A   Clear
12:57 PM -4.0 °F -20.2 °F -25.6 °F 35% 30.45 in 10.0 mi WNW 9.2 mph - N/A   Clear
1:17 PM -4.0 °F -21.2 °F -25.6 °F 35% 30.45 in 10.0 mi WNW 10.4 mph - N/A   Clear
1:37 PM -4.0 °F -17.8 °F -25.6 °F 35% 30.44 in 10.0 mi West 6.9 mph 18.4 mph N/A   Clear
1:57 PM -4.0 °F -17.8 °F -23.8 °F 38% 30.44 in 10.0 mi NW 6.9 mph - N/A   Clear
2:17 PM -4.0 °F -19.0 °F -23.8 °F 38% 30.42 in 10.0 mi NW 8.1 mph - N/A   Clear
2:38 PM -4.0 °F -19.0 °F -23.8 °F 38% 30.41 in 10.0 mi NW 8.1 mph - N/A   Clear
2:57 PM -2.2 °F -16.8 °F -23.8 °F 35% 30.43 in 10.0 mi NW 8.1 mph - N/A   Clear
3:17 PM -4.0 °F -20.2 °F -23.8 °F 38% 30.43 in 10.0 mi WNW 9.2 mph - N/A   Clear
3:38 PM -4.0 °F -22.1 °F -23.8 °F 38% 30.43 in 10.0 mi West 11.5 mph - N/A   Clear
3:57 PM -4.0 °F -24.5 °F -23.8 °F 38% 30.42 in 10.0 mi West 15.0 mph - N/A   Clear
4:17 PM -4.0 °F -23.0 °F -22.0 °F 42% 30.44 in 10.0 mi West 12.7 mph 17.3 mph N/A   Clear
4:37 PM -4.0 °F -23.0 °F -23.8 °F 38% 30.44 in 10.0 mi West 12.7 mph - N/A   Clear
4:57 PM -4.0 °F -19.0 °F -22.0 °F 42% 30.43 in 10.0 mi WNW 8.1 mph - N/A   Clear
5:17 PM -5.8 °F -25.2 °F -23.8 °F 42% 30.44 in 10.0 mi WNW 12.7 mph - N/A   Clear
5:37 PM -5.8 °F -23.4 °F -23.8 °F 42% 30.45 in 10.0 mi West 10.4 mph - N/A   Clear
5:58 PM -5.8 °F -22.4 °F -23.8 °F 42% 30.46 in 10.0 mi WNW 9.2 mph - N/A   Clear
6:17 PM -5.8 °F -24.4 °F -23.8 °F 42% 30.47 in 10.0 mi West 11.5 mph - N/A   Clear
6:37 PM -7.6 °F -25.7 °F -23.8 °F 45% 30.48 in 10.0 mi West 10.4 mph - N/A   Clear
6:58 PM -7.6 °F -24.6 °F -23.8 °F 45% 30.49 in 10.0 mi WNW 9.2 mph - N/A   Clear
7:17 PM -7.6 °F -25.7 °F -23.8 °F 45% 30.49 in 10.0 mi WNW 10.4 mph - N/A   Clear
7:37 PM -9.4 °F -26.8 °F -23.8 °F 49% 30.49 in 10.0 mi WNW 9.2 mph - N/A   Clear
7:58 PM -9.4 °F -22.7 °F -23.8 °F 49% 30.49 in 10.0 mi WNW 5.8 mph - N/A   Clear
8:17 PM -9.4 °F -25.6 °F -23.8 °F 49% 30.49 in 10.0 mi WNW 8.1 mph - N/A   Clear
8:37 PM -9.4 °F -27.9 °F -23.8 °F 49% 30.49 in 10.0 mi WNW 10.4 mph - N/A   Clear
8:58 PM -11.2 °F -24.8 °F -23.8 °F 54% 30.50 in 10.0 mi WNW 5.8 mph - N/A   Clear
9:17 PM -11.2 °F -24.8 °F -25.6 °F 49% 30.50 in 10.0 mi NW 5.8 mph - N/A   Clear
9:37 PM -13.0 °F -30.0 °F -25.6 °F 53% 30.50 in 10.0 mi WNW 8.1 mph - N/A   Clear
9:57 PM -13.0 °F -28.6 °F -25.6 °F 53% 30.52 in 10.0 mi WNW 6.9 mph - N/A   Clear
10:17 PM -13.0 °F -30.0 °F -25.6 °F 53% 30.52 in 10.0 mi WNW 8.1 mph - N/A   Clear
10:38 PM -14.8 °F -30.8 °F -25.6 °F 58% 30.52 in 10.0 mi WNW 6.9 mph - N/A   Clear
10:57 PM -14.8 °F -29.1 °F -25.6 °F 58% 30.52 in 10.0 mi WNW 5.8 mph - N/A   Clear
11:17 PM -14.8 °F -30.8 °F -27.4 °F 53% 30.52 in 10.0 mi WNW 6.9 mph - N/A   Clear
11:37 PM -14.8 °F -30.8 °F -25.6 °F 58% 30.53 in 10.0 mi WNW 6.9 mph - N/A   Clear
11:57 PM -14.8 °F -29.1 °F -25.6 °F 58% 30.53 in 10.0 mi WNW 5.8 mph - N/A   Clear